When you browse on this site, cookies collect data to enhance your experience and personalize the content and advertising you see.
Visit our Privacy Policy to learn more. By continuing to use the site, you agree to this use of cookies and data.
  • In Hungary
  • List of Countries
  • For 7 days
  • Water Temperature
  • Weather Map
  • News
  • Weather Widgets
  • user-avatar
    Login

    Hourly Weather Tomuzlovskoe

    Today, 22 October, Tuesday

    Time Temperature Precipitation Wind Pressure Humidity
    00:00 +11°C° 0 mm 3 mps 757 mmHg 79%
    01:00 +10°C° 0 mm 3 mps 756 mmHg 83%
    02:00 +10°C° 0 mm 3 mps 756 mmHg 87%
    03:00 +9°C° 0 mm 3 mps 756 mmHg 92%
    04:00 +9°C° 0 mm 2 mps 757 mmHg 92%
    05:00 +9°C° 0 mm 2 mps 757 mmHg 93%
    06:00 +8°C° 0 mm 2 mps 757 mmHg 94%
    07:00 +10°C° 0 mm 3 mps 757 mmHg 86%
    08:00 +11°C° 0 mm 3 mps 757 mmHg 79%
    09:00 +13°C° 0 mm 3 mps 757 mmHg 69%
    10:00 +14°C° 0 mm 4 mps 757 mmHg 61%
    11:00 +17°C° 0 mm 4 mps 757 mmHg 53%
    12:00 +18°C° 0 mm 4 mps 756 mmHg 44%
    13:00 +19°C° 0 mm 4 mps 756 mmHg 43%
    14:00 +19°C° 0 mm 4 mps 756 mmHg 42%
    15:00 +19°C° 0 mm 4 mps 756 mmHg 44%
    16:00 +18°C° 0 mm 3 mps 756 mmHg 47%
    17:00 +16°C° 0 mm 3 mps 756 mmHg 51%
    18:00 +15°C° 0 mm 2 mps 756 mmHg 55%
    19:00 +14°C° 0 mm 2 mps 756 mmHg 57%
    20:00 +14°C° 0 mm 2 mps 756 mmHg 59%
    21:00 +13°C° 0 mm 2 mps 756 mmHg 62%
    22:00 +13°C° 0 mm 2 mps 756 mmHg 66%
    23:00 +12°C° 0 mm 2 mps 756 mmHg 70%

    Tomorrow, 23 October, Wednesday

    Time Temperature Precipitation Wind Pressure Humidity
    00:00 +10°C° 0 mm 2 mps 755 mmHg 74%
    01:00 +10°C° 0 mm 2 mps 755 mmHg 77%
    02:00 +11°C° 0 mm 1 mps 755 mmHg 80%
    03:00 +10°C° 0 mm 1 mps 755 mmHg 83%
    04:00 +10°C° 0 mm 1 mps 756 mmHg 83%
    05:00 +11°C° 0 mm 1 mps 756 mmHg 83%
    06:00 +11°C° 0 mm 1 mps 756 mmHg 83%
    07:00 +12°C° 0 mm 1 mps 756 mmHg 78%
    08:00 +13°C° 0 mm 2 mps 756 mmHg 74%
    09:00 +14°C° 0 mm 2 mps 756 mmHg 69%
    10:00 +15°C° 0 mm 2 mps 756 mmHg 62%
    11:00 +17°C° 0 mm 2 mps 756 mmHg 55%
    12:00 +18°C° 0 mm 2 mps 756 mmHg 48%
    13:00 +19°C° 0 mm 2 mps 755 mmHg 46%
    14:00 +19°C° 0 mm 2 mps 755 mmHg 43%
    15:00 +19°C° 0 mm 3 mps 755 mmHg 41%
    16:00 +18°C° 0 mm 2 mps 755 mmHg 45%
    17:00 +17°C° 0 mm 2 mps 755 mmHg 49%
    18:00 +15°C° 0 mm 2 mps 755 mmHg 53%
    19:00 +15°C° 0 mm 2 mps 755 mmHg 55%
    20:00 +14°C° 0 mm 2 mps 756 mmHg 58%
    21:00 +13°C° 0 mm 2 mps 756 mmHg 60%
    22:00 +13°C° 0 mm 1 mps 756 mmHg 62%
    23:00 +13°C° 0 mm 1 mps 755 mmHg 64%

    Day after tomorrow, 24 October, Thursday

    Time Temperature Precipitation Wind Pressure Humidity
    00:00 +12°C° 0 mm 1 mps 755 mmHg 65%
    01:00 +12°C° 0 mm 1 mps 755 mmHg 67%
    02:00 +11°C° 0 mm 1 mps 755 mmHg 68%
    03:00 +11°C° 0 mm 1 mps 755 mmHg 70%
    04:00 +11°C° 0 mm 1 mps 755 mmHg 72%
    05:00 +11°C° 0 mm 1 mps 755 mmHg 75%
    06:00 +10°C° 0 mm 1 mps 755 mmHg 78%
    07:00 +12°C° 0 mm 1 mps 755 mmHg 74%
    08:00 +13°C° 0 mm 2 mps 755 mmHg 70%
    09:00 +14°C° 0 mm 2 mps 755 mmHg 66%
    10:00 +16°C° 0 mm 2 mps 755 mmHg 59%
    11:00 +17°C° 0 mm 2 mps 755 mmHg 53%
    12:00 +19°C° 0 mm 3 mps 754 mmHg 47%
    13:00 +19°C° 0 mm 3 mps 754 mmHg 45%
    14:00 +19°C° 0 mm 3 mps 754 mmHg 43%
    15:00 +20°C° 0 mm 3 mps 754 mmHg 42%
    16:00 +18°C° 0 mm 3 mps 754 mmHg 46%
    17:00 +17°C° 0 mm 3 mps 754 mmHg 50%
    18:00 +16°C° 0 mm 3 mps 754 mmHg 54%
    19:00 +14°C° 0 mm 3 mps 754 mmHg 55%
    20:00 +14°C° 0 mm 3 mps 754 mmHg 57%
    21:00 +14°C° 0 mm 2 mps 754 mmHg 58%
    22:00 +14°C° 0 mm 2 mps 754 mmHg 62%
    23:00 +13°C° 0 mm 2 mps 753 mmHg 65%

    25 October, Friday

    Time Temperature Precipitation Wind Pressure Humidity
    00:00 +13°C° 0 mm 2 mps 753 mmHg 68%
    01:00 +13°C° 0 mm 2 mps 753 mmHg 73%
    02:00 +12°C° 0 mm 2 mps 753 mmHg 77%
    03:00 +12°C° 0 mm 2 mps 753 mmHg 82%
    04:00 +12°C° 0 mm 2 mps 753 mmHg 83%
    05:00 +12°C° 0 mm 2 mps 753 mmHg 83%
    06:00 +12°C° 0 mm 2 mps 753 mmHg 84%
    07:00 +13°C° 0 mm 2 mps 753 mmHg 79%
    08:00 +13°C° 0 mm 2 mps 753 mmHg 74%
    09:00 +14°C° 0 mm 2 mps 753 mmHg 69%
    10:00 +14°C° 0 mm 3 mps 753 mmHg 64%
    11:00 +17°C° 0 mm 3 mps 753 mmHg 59%
    12:00 +18°C° 0 mm 3 mps 753 mmHg 53%
    13:00 +18°C° 0 mm 3 mps 753 mmHg 52%
    14:00 +18°C° 0 mm 3 mps 753 mmHg 51%
    15:00 +19°C° 0 mm 3 mps 753 mmHg 50%
    16:00 +18°C° 0 mm 2 mps 753 mmHg 54%
    17:00 +17°C° 0 mm 2 mps 753 mmHg 57%
    18:00 +16°C° 0 mm 1 mps 753 mmHg 61%
    19:00 +15°C° 0 mm 2 mps 753 mmHg 62%
    20:00 +15°C° 0 mm 2 mps 753 mmHg 63%
    21:00 +14°C° 0 mm 3 mps 753 mmHg 63%
    22:00 +13°C° 0 mm 3 mps 753 mmHg 65%
    23:00 +13°C° 0 mm 3 mps 753 mmHg 67%

    26 October, Saturday

    Time Temperature Precipitation Wind Pressure Humidity
    00:00 +13°C° 0 mm 2 mps 753 mmHg 69%
    01:00 +13°C° 0 mm 2 mps 753 mmHg 72%
    02:00 +12°C° 0 mm 2 mps 753 mmHg 74%
    03:00 +12°C° 0 mm 2 mps 753 mmHg 77%
    04:00 +10°C° 0 mm 2 mps 753 mmHg 78%
    05:00 +10°C° 0 mm 2 mps 753 mmHg 79%
    06:00 +10°C° 0 mm 2 mps 753 mmHg 80%
    07:00 +12°C° 0 mm 2 mps 753 mmHg 74%
    08:00 +14°C° 0 mm 2 mps 753 mmHg 68%
    09:00 +15°C° 0 mm 2 mps 753 mmHg 62%
    10:00 +16°C° 0 mm 2 mps 753 mmHg 60%
    11:00 +18°C° 0 mm 2 mps 753 mmHg 59%
    12:00 +19°C° 0 mm 3 mps 753 mmHg 57%
    13:00 +19°C° 0 mm 3 mps 753 mmHg 56%
    14:00 +20°C° 0 mm 3 mps 753 mmHg 55%
    15:00 +20°C° 0 mm 2 mps 752 mmHg 54%
    16:00 +19°C° 0 mm 2 mps 752 mmHg 60%
    17:00 +18°C° 0 mm 2 mps 753 mmHg 66%
    18:00 +17°C° 0 mm 2 mps 753 mmHg 72%
    19:00 +16°C° 0 mm 2 mps 753 mmHg 75%
    20:00 +15°C° 0 mm 2 mps 753 mmHg 77%
    21:00 +15°C° 0 mm 2 mps 752 mmHg 80%
    22:00 +14°C° 0 mm 1 mps 752 mmHg 83%
    23:00 +14°C° 0 mm 1 mps 752 mmHg 86%

    27 October, Sunday

    Time Temperature Precipitation Wind Pressure Humidity
    00:00 +13°C° 0 mm 1 mps 752 mmHg 89%
    01:00 +13°C° 0 mm 1 mps 752 mmHg 90%
    02:00 +12°C° 0 mm 0 mps 752 mmHg 91%
    03:00 +11°C° 0 mm 0 mps 752 mmHg 92%
    04:00 +11°C° 0 mm 0 mps 752 mmHg 92%
    05:00 +11°C° 0 mm 0 mps 752 mmHg 93%
    06:00 +11°C° 0 mm 0 mps 752 mmHg 93%
    07:00 +12°C° 0 mm 0 mps 752 mmHg 89%
    08:00 +13°C° 0 mm 0 mps 752 mmHg 85%
    09:00 +14°C° 0 mm 0 mps 752 mmHg 81%
    10:00 +16°C° 0 mm 0 mps 752 mmHg 74%
    11:00 +17°C° 0 mm 0 mps 752 mmHg 67%
    12:00 +18°C° 0 mm 0 mps 751 mmHg 60%
    13:00 +19°C° 0 mm 0 mps 751 mmHg 57%
    14:00 +19°C° 0 mm 0 mps 751 mmHg 54%
    15:00 +21°C° 0 mm 1 mps 750 mmHg 51%
    16:00 +20°C° 0 mm 1 mps 750 mmHg 56%
    17:00 +18°C° 0 mm 2 mps 750 mmHg 61%
    18:00 +17°C° 0 mm 2 mps 750 mmHg 66%
    19:00 +16°C° 0 mm 2 mps 750 mmHg 69%
    20:00 +16°C° 0 mm 1 mps 750 mmHg 72%
    21:00 +15°C° 0 mm 1 mps 750 mmHg 74%
    22:00 +15°C° 0 mm 1 mps 750 mmHg 76%
    23:00 +15°C° 0 mm 1 mps 750 mmHg 78%

    28 October, Monday

    Time Temperature Precipitation Wind Pressure Humidity
    00:00 +14°C° 0 mm 1 mps 750 mmHg 80%
    01:00 +14°C° 0 mm 1 mps 749 mmHg 80%
    02:00 +14°C° 0 mm 1 mps 749 mmHg 80%
    03:00 +13°C° 0 mm 1 mps 749 mmHg 81%
    04:00 +13°C° 0 mm 1 mps 749 mmHg 78%
    05:00 +13°C° 0 mm 1 mps 749 mmHg 75%
    06:00 +13°C° 0 mm 1 mps 749 mmHg 72%
    07:00 +14°C° 0 mm 2 mps 750 mmHg 67%
    08:00 +15°C° 0 mm 2 mps 750 mmHg 62%
    09:00 +16°C° 0 mm 2 mps 750 mmHg 57%
    10:00 +17°C° 0 mm 2 mps 750 mmHg 53%
    11:00 +18°C° 0 mm 2 mps 749 mmHg 49%
    12:00 +20°C° 0 mm 2 mps 749 mmHg 45%
    13:00 +20°C° 0 mm 3 mps 749 mmHg 44%
    14:00 +21°C° 0 mm 3 mps 749 mmHg 43%
    15:00 +21°C° 0 mm 4 mps 749 mmHg 42%
    16:00 +20°C° 0 mm 3 mps 749 mmHg 45%
    17:00 +18°C° 0 mm 3 mps 749 mmHg 48%
    18:00 +17°C° 0 mm 2 mps 749 mmHg 51%
    19:00 +16°C° 0 mm 2 mps 749 mmHg 53%
    20:00 +16°C° 0 mm 2 mps 750 mmHg 56%
    21:00 +15°C° 0 mm 2 mps 750 mmHg 58%
    22:00 +15°C° 0 mm 2 mps 750 mmHg 60%
    23:00 +15°C° 0 mm 2 mps 749 mmHg 62%
    Show more